Location: Fransum
(53.2783°N, 6.4478°E)
Time: 04:58:33
(UTC+00:00)

Daily predictions for brighter satellites

Satellite Brightness Start Highest point End
(mag) Time Altitude Azimuth Time Altitude Azimuth Time Altitude Azimuth
Cosmos 1758 Rocket 4.3 00:03:00 10° NNW 00:06:37 40° WNW 00:06:37 40° WNW
Cosmos 1726 Rocket 4.5 00:07:11 36° E 00:07:16 36° E 00:11:09 10° NNE
Cosmos 1331 Rocket 4.0 00:06:53 61° SW 00:07:45 76° WNW 00:13:02 10° NNE
ATLAS 2AS CENTAUR R/B 2.6 00:09:45 40° SW 00:12:33 86° NW 00:19:24 10° NE
DELTA 2 DEB (DPAF) 4.3 00:09:06 10° NNE 00:11:57 49° NE 00:11:57 49° NE
IDEFIX/ARIANE 42P 4.3 00:10:58 10° NE 00:14:54 21° E 00:16:41 18° ESE
Meteor 1-20 Rocket 4.4 00:12:13 10° NNW 00:17:28 49° W 00:18:03 47° WSW
Cosmos 1900 4.2 00:17:30 68° WSW 00:18:08 84° NW 00:23:07 10° NE
Meteor 1-5 Rocket 4.0 00:14:34 10° NNW 00:19:58 83° WSW 00:20:58 61° S
Cosmos 1953 Rocket 3.9 00:17:17 10° N 00:21:41 57° ENE 00:22:18 52° ESE
Cosmos 1980 Rocket 2.3 00:18:20 10° NW 00:23:53 53° WSW 00:24:19 52° SW
Cosmos 1110 Rocket 4.4 00:23:00 44° WSW 00:24:17 56° WNW 00:29:32 10° NNE
USA 234 3.5 00:20:55 10° E 00:27:25 69° N 00:33:55 10° WNW
Cosmos 44 Rocket 4.4 00:29:47 31° ESE 00:30:02 31° ESE 00:34:33 10° ENE
Cosmos 1825 Rocket 3.4 00:28:08 10° NNW 00:32:19 72° W 00:32:19 72° W
COSMOS 2406 4.4 00:32:29 26° SE 00:33:59 30° ESE 00:38:54 10° NE
Meteor 2-10 4.1 00:29:26 10° NNW 00:34:54 73° W 00:36:03 56° SSW
Cosmos 2369 3.6 00:29:31 10° NW 00:35:14 75° WSW 00:36:38 52° S
Cosmos 1602 Rocket 4.5 00:32:52 10° NNW 00:36:24 35° WNW 00:36:24 35° WNW
Cosmos 1634 Rocket 4.4 00:35:56 35° SSE 00:38:15 55° E 00:44:16 10° NNE
CZ-4C R/B 4.0 00:38:07 10° N 00:40:24 38° NNW 00:40:24 38° NNW
Cosmos 2084 3.3 00:46:23 75° ESE 00:46:23 75° ESE 00:50:25 10° NE
Cosmos 1627 Rocket 4.4 00:40:02 10° NNW 00:46:20 80° W 00:48:29 44° S
Spot 1 4.2 00:42:42 10° NNE 00:46:46 58° ESE 00:47:07 56° SE
Cosmos 2360 Rocket 3.2 00:45:27 10° NNW 00:50:54 45° NE 00:56:20 10° ESE
Cosmos 2333 Rocket 2.5 00:46:25 10° NNW 00:52:05 66° NE 00:57:05 13° SE
Cosmos-2242 3.3 00:52:12 51° SE 00:52:43 55° E 00:56:50 10° NNE
Cosmos 1933 4.5 00:53:32 30° WNW 00:53:32 30° WNW 00:56:49 10° N
USA 281 3.2 00:51:27 19° SE 00:56:25 83° ENE 01:03:02 10° NNW
Cosmos 1452 Rocket 4.2 00:58:56 33° W 01:00:39 44° NW 01:05:41 10° NNE
Cosmos 2082 Rocket 2.2 00:59:24 48° SSW 01:01:05 80° ESE 01:06:51 10° NNE
Cosmos 1833 Rocket 3.9 01:00:04 20° W 01:03:12 34° NW 01:08:18 10° NNE
Cosmos 2098 Rocket 4.3 01:03:15 36° WSW 01:04:51 46° WNW 01:10:14 10° N
Meteor 2-2 Rocket 4.4 01:02:52 38° SSE 01:04:57 65° E 01:10:33 10° NNE
Cosmos 2278 3.9 01:00:09 10° NNW 01:05:53 73° NE 01:11:11 12° SE
Cosmos 2322 Rocket 2.8 01:00:45 10° NNW 01:06:20 57° NE 01:11:53 10° SE
Cosmos 1486 Rocket 4.0 01:01:28 10° NNW 01:06:42 79° ENE 01:09:36 27° SSE
Cosmos 2279 Rocket 4.3 01:03:59 32° SSE 01:06:55 62° E 01:13:06 10° NNE
Resurs 1-4 Rocket 4.3 01:04:15 10° NE 01:07:53 18° E 01:11:30 10° SE
Cosmos 1867 4.0 01:06:15 32° WSW 01:08:37 58° NW 01:14:02 10° NE
Cosmos 2221 4.1 01:07:40 21° SE 01:09:19 27° E 01:12:49 10° NNE
NOSS 3-3 (A) 4.4 01:14:12 32° SSE 01:15:52 41° ESE 01:21:37 10° NE
ACS3 Solar Sail 1.7 01:10:02 10° NNE 01:16:05 79° WNW 01:18:33 38° SSW
Cosmos 1777 Rocket 4.0 01:12:02 10° NNW 01:17:21 83° ENE 01:20:41 23° SSE
Cosmos 1606 Rocket 4.3 01:18:01 36° W 01:18:41 39° WNW 01:22:50 10° N
Cosmos 2219 Rocket 3.2 01:14:48 10° NNW 01:20:14 46° NE 01:25:40 10° ESE
SL-16 R/B 2.1 01:15:45 10° NW 01:21:27 77° WSW 01:24:52 25° SSE
Cosmos 1437 Rocket 4.2 01:22:27 21° WNW 01:22:27 21° WNW 01:25:08 10° NNW
H-2A R/B 4.4 01:19:14 10° NE 01:22:32 17° E 01:25:51 10° SE
GP-B 3.3 01:18:30 10° N 01:22:47 53° W 01:23:25 48° WSW
CZ-4C R/B 1.7 01:22:06 49° SW 01:23:22 86° SE 01:29:07 10° NE
Cosmos 1271 Rocket 4.0 01:27:38 24° SE 01:28:40 29° E 01:31:43 10° NNE
Meteor 1-14 Rocket 4.3 01:22:52 10° NNW 01:28:41 77° ENE 01:32:37 21° SSE
ATLAS 3B R/B 3.8 01:22:38 10° WNW 01:28:45 26° WSW 01:29:23 26° WSW
SL-4 R/B 3.4 01:31:34 22° SE 01:31:34 22° SE 01:33:09 10° SE
CZ-2C R/B 4.5 01:30:23 15° W 01:30:50 15° W 01:33:59 10° NW
USA 267 4.3 01:25:22 10° ENE 01:31:08 32° SE 01:34:01 23° S
NOSS 3-3 (C) 4.4 01:30:27 31° S 01:32:34 44° ESE 01:38:30 10° NE
Cosmos 2058 Rocket 3.0 01:32:04 49° SW 01:33:09 70° WNW 01:37:33 10° N
Cosmos 2266 Rocket 4.1 01:28:06 10° N 01:34:16 74° ENE 01:39:09 16° SSE
Cosmos 1470 2.3 01:32:25 10° N 01:35:46 76° ENE 01:36:16 60° SE
Gbstr 26 Del rocket 3.4 01:37:23 35° SSE 01:37:23 35° SSE 01:39:48 10° ESE
Okean 1 4.3 01:37:01 28° WNW 01:37:05 28° WNW 01:40:11 10° N
KORONAS-FOTON 3.2 01:38:28 76° SSW 01:38:42 87° W 01:42:05 10° N
Cosmos 909 Rocket 4.1 01:37:58 31° SW 01:41:13 78° NW 01:47:44 10° NE
Cosmos 1536 3.3 01:43:30 10° NNW 01:46:48 37° W 01:46:48 37° W
Cosmos 2333 4.3 01:41:13 10° NNW 01:46:55 81° ENE 01:52:38 10° SE
DMSP B5D2-2 4.3 01:45:24 10° SSE 01:50:33 71° ENE 01:55:44 10° NNW
NOSS 3-4 (A) 3.8 01:45:09 10° NW 01:51:38 81° NE 01:59:20 10° SE
Cosmos 1812 Rocket 4.0 01:49:34 25° SSE 01:51:51 55° E 01:56:07 10° NNE
Meteor 2-6 Rocket 4.3 01:49:05 29° SSW 01:52:10 86° WNW 01:58:07 10° NNE
NOSS 3-4 (C) 3.8 01:45:41 10° NW 01:52:11 81° NE 01:59:54 10° SE
Meteor 1-26 Rocket 4.5 01:51:48 31° SW 01:54:03 51° WNW 01:59:22 10° N
IDEFIX/ARIANE 42P 2.6 01:49:42 10° NNE 01:54:53 72° WNW 01:57:22 31° SSW
Envisat 3.9 01:52:33 10° NNE 01:57:25 45° E 02:01:23 15° SSE
Aureole 1 Rocket 3.6 01:54:27 10° NNW 01:58:22 59° ENE 02:03:15 10° SE
Cosmos 2084 Rocket 3.2 01:57:54 10° NW 02:02:06 70° SW 02:06:19 10° SE
Cosmos 1707 3.4 02:03:05 26° WNW 02:03:05 26° WNW 02:05:27 10° N
ATLAS 2AS CENTAUR R/B 3.7 01:57:45 10° W 02:04:13 41° NNW 02:10:36 10° NE
Iridium 4 Rocket 3.6 02:03:00 17° SSE 02:06:32 67° E 02:11:39 10° N
MOZ.5/SAFIR/RUBIN 5/SL-8 3.7 02:05:32 23° S 02:08:26 66° WSW 02:13:06 10° NNW
Cosmos 1975 2.7 02:05:56 10° NNW 02:09:30 54° W 02:10:35 37° SSW
H-2A R/B 2.3 02:06:25 13° SSE 02:09:36 69° ENE 02:13:11 10° N
Cosmos 990 Rocket 3.9 02:04:54 10° NNW 02:10:01 71° WSW 02:15:08 10° SSE
USA 234 3.2 02:03:53 10° ESE 02:10:26 76° SSW 02:17:01 10° WNW
ADEOS II 3.4 02:06:04 10° NNE 02:10:55 36° E 02:15:43 10° SSE
Cosmos 44 Rocket 3.6 02:08:21 26° WSW 02:11:11 64° NW 02:16:22 10° NE
ALOS 3.0 02:11:09 10° NNE 02:15:34 47° E 02:19:31 12° S
MSX 4.1 02:10:44 10° N 02:16:20 55° WNW 02:19:47 23° SW
Cosmos 1763 Rocket 3.7 02:13:16 22° SSW 02:16:40 72° ESE 02:21:58 10° NNE
Cosmos 1238 Rocket 3.7 02:15:05 15° SSE 02:17:02 31° E 02:19:46 10° NNE
COSMOS 2406 3.4 02:14:30 25° SW 02:17:55 63° NW 02:23:40 10° NNE
COSMOS 2428 3.9 02:13:44 10° NNW 02:19:15 46° NE 02:24:44 10° ESE
CZ-2D R/B 2.7 02:14:26 10° NNE 02:19:37 55° E 02:24:33 11° S
SL-16 R/B 3.7 02:16:33 10° SE 02:22:26 45° ENE 02:28:22 10° N
ADEOS Rocket 3.6 02:15:02 10° NNE 02:22:33 78° WNW 02:28:49 17° SSW
Cosmos 1898 Rocket 3.9 02:22:57 10° NNW 02:28:07 65° ENE 02:33:14 10° SE
Spot 2 4.3 02:24:36 10° SSE 02:29:26 86° WSW 02:34:27 10° NNW
Cosmos 1354 Rocket 4.2 02:27:23 10° NW 02:32:29 49° WSW 02:37:31 10° S
Cosmos 1937 Rocket 4.3 02:27:29 10° NNW 02:32:38 55° ENE 02:37:42 10° SE
Cosmos 220 Rocket 4.3 02:32:09 24° WSW 02:34:13 48° WNW 02:38:09 10° NNE
FENGYUN 3A 4.1 02:29:23 10° N 02:34:37 50° WNW 02:38:14 20° SW
Cosmos 2360 Rocket 2.5 02:29:34 10° NW 02:34:57 44° WSW 02:40:16 10° S
Cosmos 2333 Rocket 3.1 02:31:14 10° NW 02:35:59 28° WSW 02:38:59 18° SSW
Cosmos 1607 4.3 02:31:28 18° WSW 02:36:04 60° NW 02:42:19 10° NE
Cosmos 1842 4.1 02:35:26 22° W 02:36:15 24° WNW 02:38:57 10° NNW
Alouette 2 Rocket 3.2 02:32:38 10° NNW 02:37:00 85° WSW 02:40:34 10° SSE
USA 305 1.2 02:38:24 43° NW 02:38:45 53° N 02:40:09 10° ENE
EP 1 4.2 02:36:33 10° NW 02:39:07 58° SW 02:41:48 10° SE
USA 281 4.1 02:38:17 18° SW 02:41:36 26° W 02:47:00 10° NW
Meteor 2-10 Rocket 4.0 02:37:22 10° N 02:42:25 62° ENE 02:47:37 10° SSE
H-2A R/B 4.2 02:41:11 10° NE 02:44:21 22° E 02:47:27 10° SE
Cosmos 540 Rocket 3.4 02:41:19 18° SSW 02:45:11 80° WNW 02:50:22 10° NNE
Cosmos 2082 Rocket 3.6 02:41:13 12° W 02:45:47 29° NW 02:50:46 10° NNE
Cosmos 2221 3.2 02:43:58 20° SW 02:46:13 36° WNW 02:50:05 10° N
NPP 4.4 02:42:40 10° N 02:47:40 40° WNW 02:51:28 16° WSW
Resurs 1-4 Rocket 2.1 02:42:59 10° NNE 02:48:21 85° WNW 02:53:19 12° SSW
Cosmos 2322 Rocket 2.9 02:45:09 10° NW 02:50:07 33° WSW 02:55:04 10° SSW
Cosmos 468 Rocket 4.2 02:46:37 12° SSW 02:51:29 73° ESE 02:56:47 10° NNE
BREEZE-M DEB (TANK) 3.4 02:50:12 19° WSW 02:52:08 47° S 02:59:15 10° ESE
DNEPR-1 R/B 4.4 02:48:18 10° NW 02:53:24 50° SW 02:59:34 10° SSE
TiPS 4.4 02:55:44 31° NNW 02:55:44 31° NNW 02:56:45 10° NNE
Cosmos 1766 Rocket 3.6 02:51:46 10° NNW 02:56:05 60° W 03:00:19 10° S
ACS3 Solar Sail 3.4 02:53:27 10° N 02:57:39 20° NW 03:01:53 10° W
Cosmos 1833 4.3 02:53:59 13° SSW 02:59:04 87° SE 03:04:47 10° NNE
H-2A R/B 2.1 02:57:22 10° NNE 03:02:30 89° WNW 03:07:45 10° SSW
Cosmos 1271 Rocket 3.8 03:01:02 16° WSW 03:02:54 25° WNW 03:05:52 10° N
Cosmos 2219 Rocket 2.5 02:58:54 10° NW 03:04:10 42° WSW 03:09:27 10° S
Cosmos 2237 Rocket 3.5 02:58:47 10° NNW 03:04:17 45° NE 03:09:43 10° ESE
SL-16 R/B 3.7 03:01:21 10° WNW 03:04:36 16° W 03:06:38 13° WSW
CRYOSAT 2 4.3 03:00:12 10° S 03:05:05 79° W 03:10:00 10° N
RESURS DK-1 4.1 03:01:47 10° NNW 03:05:30 36° NE 03:09:12 10° ESE
Cosmos 44 4.3 03:00:13 10° NW 03:05:35 57° NE 03:10:52 10° ESE
Meteor 1-11 Rocket 4.5 03:00:35 10° NNW 03:05:53 35° W 03:11:04 10° SSW
SL-4 R/B 3.3 03:05:08 15° WSW 03:06:13 17° SW 03:08:45 10° S
NOSS 3-3 (A) 4.2 03:01:35 13° WSW 03:06:28 59° NNW 03:13:07 10° NE
Meteor 2-11 Rocket 4.4 03:00:39 10° NNW 03:06:48 74° W 03:12:55 10° S
CZ-4C R/B 3.3 03:07:38 10° W 03:12:14 37° NNW 03:18:07 10° NE
USA 290 2.6 03:10:18 15° SW 03:12:42 48° WNW 03:15:48 10° NNE
ARGOS 3.8 03:08:06 10° NNE 03:13:27 58° ESE 03:18:44 10° S
Cosmos 1408 Rocket 4.3 03:09:58 10° N 03:14:13 57° ENE 03:18:25 10° SSE
USA 267 3.4 03:08:13 10° ENE 03:14:49 77° SSE 03:21:22 10° WSW
METEOR-M 4.2 03:10:45 10° NNE 03:16:07 84° ESE 03:21:27 10° SSW
Gbstr 26 Del rocket 4.2 03:19:26 10° WSW 03:21:43 16° SW 03:24:05 10° S
NOSS 3-3 (C) 4.3 03:17:53 10° WSW 03:23:20 57° NNW 03:30:02 10° NE
Cosmos 2322 3.7 03:18:57 10° NW 03:24:39 70° WSW 03:30:18 10° SSE
Cosmos 372 Rocket 4.5 03:23:46 10° NW 03:28:30 37° WSW 03:33:11 10° S
NOSS 3 (A) 4.0 03:28:22 10° NW 03:30:32 56° SW 03:33:19 10° SE
ISS -2.0 03:29:44 10° SSW 03:32:30 24° SSE 03:35:18 10° E
IDEFIX/ARIANE 42P 4.4 03:30:24 10° NNW 03:33:31 16° NW 03:36:39 10° W
Envisat 3.9 03:31:43 10° N 03:36:16 34° WNW 03:40:48 10° SW
BREEZE-M DEB (TANK) 3.4 03:32:20 10° SW 03:37:33 29° SSE 03:40:09 10° ESE
Aureole 1 Rocket 4.4 03:36:55 10° NW 03:40:07 21° WSW 03:43:49 10° SSW
Meteor 2-4 Rocket 3.9 03:35:39 10° SSW 03:40:53 51° WNW 03:46:07 10° N
Cosmos 1461 2.8 03:37:42 10° SW 03:41:26 72° SE 03:45:09 10° NE
NOSS 3-4 (A) 4.4 03:36:14 10° WNW 03:42:14 34° WSW 03:49:06 10° S
NOSS 3-4 (C) 4.4 03:36:46 10° WNW 03:42:48 34° WSW 03:49:41 10° S
AQUA 3.8 03:39:02 10° NNE 03:43:44 85° WNW 03:48:25 10° SSW
H-2A R/B 4.0 03:42:18 10° WSW 03:44:00 13° W 03:45:41 10° WNW
Meteor 1-28 Rocket 3.4 03:41:31 10° SSE 03:44:45 65° ENE 03:48:00 10° N
NOSS 0 Rocket 3.9 03:38:47 10° NW 03:44:59 72° WSW 03:51:06 10° SSE
Cosmos 1066 Rocket 4.2 03:40:59 10° SSW 03:46:18 63° WNW 03:51:38 10° N
CZ-3 R/B 4.4 03:51:13 10° WSW 04:06:57 21° SSW 04:14:22 10° SSE
